Precipitable_Water
0.69 0.68 0.67 0.68 0.69 0.69 0.69 0.69 0.68 0.67 0.67 0.65 0.66 0.69 0.67 0.67 0.63 0.52 0.51 0.68 0.53 0.39 0.34 0.37 0.35 0.45 0.42 0.46 0.43 0.54 0.58 0.65 0.70 0.57 0.53 0.44 0.41 0.52 0.52 0.62 0.58 0.56 0.58 0.56 0.51 0.41 0.37 0.71 0.67 0.51 0.66 0.74 0.75 0.76
0.73 0.72 0.73 0.71 0.69 0.70 0.70 0.68 0.68 0.66 0.69 0.65 0.66 0.67 0.68 0.67 0.67 0.58 0.42 0.65 0.66 0.46 0.34 0.49 0.44 0.39 0.46 0.46 0.43 0.48 0.54 0.64 0.74 0.67 0.64 0.62 0.53 0.55 0.53 0.53 0.71 0.58 0.72 0.66 0.70 0.66 0.83 0.86 0.80 0.85 0.84 0.78 0.81 0.83
0.74 0.73 0.74 0.73 0.71 0.70 0.71 0.71 0.70 0.69 0.70 0.69 0.69 0.70 0.68 0.71 0.67 0.60 0.50 0.57 0.56 0.41 0.30 0.34 0.34 0.41 0.49 0.51 0.52 0.40 0.52 0.60 0.69 0.72 0.64 0.71 0.63 0.64 0.53 0.57 0.59 0.66 0.82 0.73 0.76 0.83 0.85 0.87 0.89 0.94 0.93 0.90 0.91 0.94
0.69 0.70 0.71 0.71 0.74 0.73 0.71 0.70 0.69 0.70 0.69 0.71 0.69 0.67 0.67 0.72 0.65 0.61 0.50 0.54 0.55 0.45 0.27 0.38 0.52 0.44 0.50 0.46 0.43 0.43 0.42 0.52 0.62 0.68 0.58 0.60 0.58 0.65 0.59 0.67 0.61 0.73 0.83 0.72 0.79 0.83 0.89 0.90 0.92 0.89 0.90 0.89 0.93 0.97
0.68 0.67 0.69 0.71 0.73 0.73 0.71 0.71 0.70 0.69 0.69 0.69 0.69 0.73 0.69 0.74 0.62 0.57 0.52 0.51 0.63 0.47 0.33 0.37 0.48 0.50 0.50 0.41 0.36 0.41 0.42 0.43 0.45 0.48 0.50 0.51 0.62 0.59 0.67 0.69 0.67 0.81 0.80 0.73 0.68 0.81 0.77 0.80 0.85 0.86 0.81 0.83 0.84 0.84
0.69 0.66 0.67 0.71 0.74 0.73 0.72 0.71 0.69 0.66 0.69 0.68 0.70 0.71 0.71 0.72 0.58 0.55 0.49 0.62 0.65 0.61 0.42 0.36 0.52 0.47 0.45 0.37 0.36 0.40 0.39 0.37 0.43 0.38 0.40 0.52 0.63 0.58 0.60 0.61 0.76 0.82 0.88 0.89 0.89 0.96 0.91 0.85 0.83 0.82 0.74 0.74 0.76 0.74
0.71 0.71 0.67 0.69 0.72 0.73 0.72 0.71 0.71 0.68 0.69 0.67 0.69 0.69 0.71 0.69 0.55 0.45 0.49 0.66 0.68 0.66 0.39 0.37 0.41 0.50 0.44 0.37 0.48 0.43 0.40 0.36 0.32 0.28 0.32 0.39 0.49 0.61 0.50 0.46 0.65 0.75 0.79 0.88 0.88 0.72 0.67 0.68 0.68 0.76 0.74 0.75 0.79 0.76
0.75 0.73 0.70 0.70 0.71 0.74 0.73 0.70 0.69 0.70 0.67 0.65 0.68 0.68 0.70 0.62 0.54 0.42 0.60 0.65 0.64 0.49 0.49 0.35 0.42 0.41 0.43 0.34 0.39 0.52 0.37 0.34 0.31 0.30 0.33 0.34 0.39 0.44 0.45 0.56 0.60 0.61 0.65 0.68 0.69 0.69 0.69 0.68 0.66 0.64 0.64 0.62 0.56 0.51
0.73 0.72 0.69 0.69 0.70 0.72 0.70 0.69 0.69 0.70 0.65 0.66 0.68 0.68 0.62 0.57 0.49 0.52 0.69 0.68 0.61 0.54 0.40 0.45 0.38 0.34 0.45 0.42 0.46 0.49 0.47 0.35 0.38 0.29 0.29 0.32 0.37 0.37 0.49 0.52 0.52 0.54 0.53 0.54 0.56 0.57 0.57 0.54 0.52 0.50 0.47 0.45 0.42 0.42
0.70 0.71 0.70 0.69 0.69 0.69 0.70 0.70 0.69 0.70 0.68 0.69 0.62 0.55 0.43 0.59 0.73 0.63 0.51 0.43 0.40 0.51 0.45 0.44 0.50 0.36 0.41 0.42 0.39 0.41 0.48 0.42 0.29 0.33 0.50 0.51 0.54 0.66 0.66 0.63 0.61 0.58 0.55 0.52 0.43 0.40 0.41 0.38 0.40 0.43 0.43 0.44 0.44 0.42
0.73 0.70 0.70 0.70 0.68 0.68 0.69 0.69 0.70 0.70 0.70 0.58 0.56 0.53 0.66 0.74 0.56 0.48 0.39 0.37 0.38 0.34 0.39 0.46 0.45 0.37 0.46 0.39 0.37 0.45 0.38 0.42 0.34 0.34 0.40 0.52 0.55 0.68 0.76 0.72 0.72 0.71 0.68 0.64 0.61 0.59 0.57 0.54 0.49 0.46 0.45 0.47 0.49 0.49
0.74 0.73 0.72 0.71 0.70 0.69 0.69 0.70 0.70 0.67 0.64 0.69 0.68 0.70 0.64 0.52 0.44 0.38 0.35 0.40 0.39 0.33 0.40 0.42 0.42 0.47 0.46 0.50 0.40 0.41 0.38 0.41 0.37 0.45 0.46 0.50 0.68 0.76 0.75 0.72 0.71 0.73 0.73 0.69 0.68 0.64 0.63 0.60 0.59 0.58 0.59 0.60 0.62 0.65
0.75 0.73 0.72 0.71 0.70 0.68 0.69 0.71 0.71 0.75 0.77 0.73 0.62 0.52 0.49 0.43 0.28 0.28 0.27 0.34 0.34 0.41 0.41 0.43 0.41 0.44 0.47 0.48 0.39 0.37 0.34 0.36 0.46 0.41 0.50 0.65 0.75 0.80 0.83 0.80 0.79 0.79 0.75 0.71 0.66 0.63 0.59 0.60 0.64 0.65 0.63 0.67 0.68 0.72
0.73 0.70 0.70 0.69 0.69 0.69 0.71 0.71 0.72 0.73 0.70 0.55 0.47 0.35 0.36 0.34 0.36 0.38 0.42 0.47 0.51 0.48 0.46 0.44 0.39 0.40 0.45 0.41 0.39 0.32 0.39 0.38 0.34 0.40 0.46 0.61 0.66 0.70 0.74 0.77 0.70 0.66 0.66 0.63 0.62 0.65 0.65 0.66 0.65 0.69 0.72 0.76 0.77 0.74
0.72 0.71 0.70 0.69 0.70 0.72 0.71 0.70 0.72 0.72 0.62 0.49 0.49 0.36 0.40 0.46 0.49 0.53 0.54 0.57 0.51 0.50 0.47 0.44 0.44 0.42 0.36 0.37 0.39 0.35 0.29 0.31 0.40 0.44 0.53 0.64 0.66 0.65 0.68 0.68 0.64 0.62 0.65 0.66 0.68 0.67 0.67 0.69 0.67 0.70 0.75 0.78 0.82 0.81
0.69 0.67 0.66 0.71 0.72 0.71 0.72 0.72 0.69 0.67 0.59 0.52 0.49 0.44 0.49 0.48 0.48 0.47 0.47 0.51 0.54 0.50 0.50 0.49 0.43 0.39 0.38 0.39 0.32 0.31 0.33 0.36 0.46 0.56 0.64 0.69 0.65 0.65 0.63 0.64 0.67 0.69 0.68 0.67 0.66 0.69 0.70 0.69 0.69 0.72 0.77 0.84 0.81 0.81
0.66 0.60 0.70 0.70 0.70 0.70 0.71 0.66 0.62 0.53 0.49 0.49 0.48 0.56 0.57 0.52 0.49 0.50 0.50 0.49 0.56 0.47 0.37 0.38 0.34 0.34 0.41 0.31 0.33 0.45 0.43 0.50 0.58 0.62 0.66 0.68 0.64 0.62 0.66 0.68 0.69 0.67 0.65 0.65 0.65 0.65 0.66 0.68 0.70 0.72 0.71 0.81 0.86 0.87
0.58 0.65 0.67 0.67 0.67 0.65 0.65 0.63 0.55 0.52 0.45 0.49 0.48 0.53 0.57 0.58 0.53 0.51 0.50 0.50 0.46 0.45 0.43 0.37 0.45 0.34 0.32 0.31 0.38 0.49 0.54 0.60 0.64 0.64 0.63 0.65 0.64 0.66 0.69 0.70 0.72 0.71 0.70 0.67 0.65 0.65 0.68 0.67 0.65 0.66 0.69 0.74 0.78 0.85
0.60 0.62 0.64 0.66 0.66 0.60 0.51 0.49 0.55 0.45 0.48 0.53 0.54 0.54 0.53 0.52 0.57 0.55 0.52 0.50 0.49 0.51 0.47 0.44 0.38 0.37 0.39 0.47 0.48 0.51 0.52 0.53 0.51 0.58 0.65 0.70 0.72 0.70 0.70 0.73 0.76 0.72 0.71 0.66 0.63 0.61 0.62 0.62 0.63 0.64 0.65 0.66 0.62 0.67
0.61 0.63 0.64 0.68 0.68 0.52 0.45 0.46 0.59 0.48 0.44 0.49 0.52 0.48 0.45 0.43 0.45 0.45 0.45 0.43 0.42 0.43 0.43 0.40 0.42 0.49 0.50 0.52 0.55 0.55 0.55 0.58 0.57 0.56 0.58 0.65 0.73 0.74 0.72 0.73 0.72 0.72 0.67 0.63 0.62 0.60 0.58 0.59 0.58 0.61 0.60 0.59 0.57 0.56
0.62 0.63 0.63 0.65 0.61 0.57 0.49 0.47 0.48 0.50 0.47 0.43 0.46 0.47 0.42 0.42 0.40 0.40 0.39 0.45 0.39 0.38 0.39 0.46 0.50 0.57 0.61 0.58 0.59 0.61 0.63 0.67 0.63 0.63 0.62 0.67 0.77 0.75 0.75 0.70 0.67 0.67 0.65 0.63 0.60 0.59 0.54 0.49 0.51 0.51 0.52 0.51 0.51 0.54
0.65 0.70 0.63 0.65 0.51 0.50 0.47 0.56 0.47 0.50 0.41 0.39 0.40 0.44 0.40 0.39 0.42 0.42 0.47 0.37 0.36 0.40 0.44 0.44 0.46 0.47 0.47 0.53 0.61 0.69 0.75 0.77 0.77 0.80 0.86 0.84 0.74 0.70 0.68 0.68 0.67 0.63 0.65 0.64 0.62 0.53 0.50 0.54 0.50 0.49 0.47 0.46 0.48 0.49
0.76 0.71 0.62 0.58 0.48 0.47 0.44 0.56 0.45 0.44 0.36 0.37 0.44 0.40 0.40 0.41 0.45 0.51 0.39 0.41 0.43 0.49 0.53 0.55 0.57 0.64 0.68 0.74 0.83 0.82 0.83 0.81 0.77 0.78 0.80 0.81 0.80 0.77 0.72 0.67 0.69 0.67 0.63 0.61 0.62 0.56 0.55 0.56 0.56 0.55 0.56 0.56 0.55 0.54
0.86 0.70 0.61 0.58 0.56 0.50 0.59 0.53 0.56 0.53 0.52 0.48 0.45 0.44 0.49 0.54 0.63 0.56 0.48 0.54 0.65 0.76 0.75 0.74 0.75 0.75 0.79 0.81 0.80 0.79 0.81 0.81 0.76 0.76 0.77 0.73 0.68 0.64 0.60 0.56 0.55 0.54 0.54 0.57 0.57 0.58 0.59 0.60 0.61 0.61 0.62 0.61 0.61 0.60
0.64 0.64 0.65 0.58 0.64 0.57 0.54 0.53 0.55 0.55 0.51 0.54 0.52 0.54 0.57 0.65 0.55 0.55 0.56 0.64 0.69 0.70 0.72 0.74 0.74 0.74 0.70 0.69 0.70 0.70 0.75 0.73 0.65 0.64 0.62 0.62 0.59 0.58 0.56 0.56 0.57 0.58 0.57 0.54 0.54 0.55 0.56 0.58 0.58 0.57 0.57 0.57 0.55 0.56
0.53 0.64 0.63 0.62 0.61 0.60 0.56 0.50 0.50 0.50 0.53 0.52 0.52 0.57 0.60 0.55 0.47 0.46 0.54 0.61 0.64 0.68 0.69 0.71 0.70 0.69 0.69 0.70 0.65 0.64 0.64 0.69 0.65 0.58 0.57 0.56 0.53 0.50 0.48 0.47 0.47 0.48 0.54 0.54 0.53 0.51 0.52 0.52 0.51 0.49 0.48 0.48 0.48 0.48
0.54 0.56 0.61 0.72 0.69 0.66 0.60 0.62 0.64 0.55 0.48 0.44 0.48 0.51 0.51 0.44 0.45 0.52 0.62 0.69 0.67 0.71 0.73 0.75 0.76 0.72 0.65 0.62 0.62 0.62 0.61 0.59 0.56 0.55 0.57 0.55 0.53 0.53 0.50 0.46 0.45 0.48 0.51 0.49 0.46 0.45 0.45 0.44 0.44 0.44 0.43 0.46 0.50 0.54
0.60 0.59 0.46 0.52 0.54 0.56 0.40 0.40 0.40 0.40 0.41 0.47 0.48 0.42 0.44 0.47 0.47 0.59 0.63 0.69 0.70 0.71 0.71 0.70 0.69 0.64 0.59 0.57 0.56 0.54 0.52 0.51 0.53 0.55 0.56 0.56 0.55 0.53 0.50 0.49 0.47 0.45 0.42 0.37 0.36 0.39 0.38 0.38 0.37 0.36 0.37 0.40 0.43 0.48
0.53 0.53 0.50 0.45 0.48 0.49 0.45 0.40 0.38 0.40 0.44 0.40 0.37 0.43 0.49 0.60 0.65 0.65 0.63 0.62 0.62 0.58 0.55 0.53 0.52 0.52 0.49 0.47 0.46 0.45 0.44 0.43 0.39 0.36 0.38 0.42 0.44 0.45 0.46 0.44 0.41 0.37 0.33 0.33 0.36 0.37 0.37 0.37 0.36 0.35 0.35 0.38 0.42 0.46
0.51 0.58 0.55 0.51 0.48 0.45 0.51 0.53 0.50 0.54 0.56 0.57 0.58 0.56 0.57 0.60 0.63 0.64 0.59 0.56 0.54 0.52 0.51 0.51 0.52 0.51 0.48 0.48 0.46 0.45 0.46 0.44 0.44 0.39 0.36 0.35 0.37 0.40 0.41 0.38 0.35 0.35 0.38 0.39 0.39 0.40 0.41 0.40 0.39 0.38 0.36 0.38 0.38 0.40
0.62 0.56 0.56 0.58 0.51 0.58 0.64 0.63 0.61 0.59 0.61 0.61 0.65 0.63 0.60 0.62 0.66 0.67 0.63 0.61 0.61 0.58 0.56 0.54 0.54 0.55 0.53 0.50 0.47 0.42 0.37 0.41 0.43 0.41 0.40 0.39 0.38 0.37 0.36 0.34 0.36 0.38 0.40 0.41 0.42 0.42 0.42 0.40 0.40 0.40 0.40 0.40 0.40 0.41
0.60 0.57 0.59 0.56 0.56 0.66 0.74 0.69 0.61 0.64 0.63 0.62 0.64 0.69 0.74 0.68 0.64 0.65 0.68 0.67 0.63 0.60 0.60 0.58 0.56 0.55 0.56 0.53 0.48 0.43 0.42 0.41 0.40 0.39 0.39 0.37 0.37 0.38 0.39 0.40 0.39 0.41 0.43 0.43 0.44 0.44 0.43 0.42 0.42 0.43 0.43 0.44 0.45 0.44
0.62 0.76 0.77 0.66 0.58 0.57 0.62 0.57 0.54 0.59 0.63 0.63 0.66 0.73 0.77 0.74 0.67 0.70 0.75 0.74 0.69 0.65 0.62 0.61 0.61 0.58 0.54 0.47 0.41 0.41 0.42 0.41 0.41 0.40 0.39 0.40 0.42 0.43 0.44 0.44 0.44 0.44 0.43 0.42 0.41 0.40 0.39 0.38 0.38 0.37 0.37 0.38 0.40 0.41
Wind_Speed
41 39 38 35 32 31 29 28 28 26 25 23 22 21 21 21 20 19 21 21 20 20 22 22 20 21 19 19 18 18 17 15 18 14 20 21 20 21 14 17 17 19 16 14 15 15 15 16 19 17 19 15 13 12
36 31 29 27 27 26 25 23 23 23 22 21 19 19 19 19 19 19 20 20 19 20 20 20 22 25 26 23 19 19 19 17 18 15 15 18 18 16 19 17 18 17 21 25 15 17 17 12 13 15 16 14 12 13
27 26 25 25 24 22 21 20 20 19 19 18 17 16 16 17 18 18 19 19 17 17 18 17 17 18 22 23 22 20 20 19 18 15 15 15 14 14 17 19 21 20 18 19 19 20 18 15 14 14 13 12 13 13
25 24 23 23 21 18 17 17 16 15 15 15 14 14 14 14 16 17 18 18 16 14 14 15 14 14 16 20 21 21 25 20 19 15 15 14 15 13 16 18 21 22 20 18 19 19 18 15 13 18 16 15 16 17
22 21 20 19 17 16 14 13 13 13 12 12 12 11 11 12 13 15 17 18 18 15 12 14 14 14 16 17 19 18 22 23 20 17 14 14 13 10 15 15 14 16 21 18 20 19 16 16 14 12 12 14 17 18
20 18 17 16 12 11 10 10 10 11 11 11 10 9 10 9 11 13 14 16 16 14 14 13 13 13 13 13 16 16 18 21 22 20 17 15 14 10 10 11 15 15 15 13 19 19 16 14 13 12 12 15 14 15
17 16 14 11 10 9 8 8 9 10 10 11 10 9 9 9 11 15 14 14 14 13 11 11 12 12 12 11 14 15 15 18 20 19 19 17 15 12 10 10 11 11 13 13 11 11 12 12 13 12 13 15 16 16
14 13 11 9 8 7 7 7 8 9 9 10 9 10 8 9 11 13 13 14 14 14 11 10 10 10 12 11 11 14 12 14 17 17 17 17 15 13 12 11 12 11 11 10 10 10 12 13 14 16 17 19 20 21
9 8 7 7 5 4 4 5 6 9 9 9 9 8 8 10 11 12 13 12 14 13 12 11 11 9 11 10 11 12 12 12 15 15 15 14 12 10 15 14 12 11 11 12 11 11 12 15 18 20 21 22 23 23
6 4 3 3 3 4 4 4 6 8 9 10 10 9 10 10 10 11 10 11 12 13 13 13 12 10 10 9 11 11 12 12 13 16 14 14 13 12 11 11 11 10 10 11 11 13 15 17 18 20 21 23 24 26
3 2 3 3 5 5 5 6 8 10 11 12 10 10 10 10 11 10 9 11 10 11 14 13 13 11 9 10 11 11 11 12 13 15 15 13 12 11 10 9 8 9 10 11 12 15 17 20 22 24 25 25 26 27
3 4 5 6 5 6 8 9 11 12 12 11 10 11 12 10 9 9 9 9 10 10 14 13 12 12 10 10 10 10 11 10 12 14 12 12 12 11 8 9 10 12 13 15 16 18 19 19 20 20 21 23 25 26
8 9 8 8 8 9 11 13 15 13 13 11 12 11 9 8 8 9 9 7 7 9 12 12 12 11 10 9 10 10 9 10 10 9 9 10 9 8 8 9 10 12 13 14 16 17 18 18 18 18 20 22 23 23
13 12 11 10 10 12 13 15 15 14 11 11 11 9 9 9 9 9 9 8 8 10 10 11 11 11 10 9 9 9 9 9 8 8 9 9 7 6 7 8 9 10 11 13 14 15 16 16 17 18 19 20 19 21
14 13 12 12 13 14 15 16 14 11 10 10 9 8 9 7 9 8 9 8 8 8 9 10 9 10 10 10 9 8 8 8 7 8 7 6 6 5 6 7 7 8 10 10 12 12 13 14 15 16 17 17 17 17
14 14 14 15 16 17 18 15 13 10 10 9 9 8 7 9 7 9 8 7 7 8 9 10 9 8 7 8 8 6 7 7 8 7 6 6 6 7 7 8 8 9 10 11 11 12 13 13 14 13 13 13 13 11
15 15 16 16 18 18 15 13 11 11 9 9 8 10 7 8 7 7 6 6 6 7 7 8 8 7 8 7 7 7 7 7 7 6 6 7 7 6 6 7 8 9 11 12 12 11 11 11 10 11 11 11 11 10
18 18 18 18 16 13 12 12 11 10 10 9 9 8 8 9 6 6 4 4 5 6 7 8 7 6 6 6 7 7 6 6 5 5 6 6 7 7 7 8 9 10 11 11 10 9 10 9 9 9 10 10 10 8
19 19 18 15 12 11 11 11 11 10 10 9 8 5 6 7 5 5 4 5 5 7 8 7 6 6 6 5 6 5 6 6 6 6 6 6 6 6 8 9 10 10 9 8 8 7 8 10 11 11 10 10 10 10
17 14 13 12 12 12 11 11 10 7 6 4 5 4 5 5 4 4 4 4 5 8 7 6 6 5 5 5 4 5 6 6 6 6 6 7 7 8 9 9 8 9 9 8 8 9 10 12 10 9 10 12 13 13
15 14 12 12 11 11 9 8 7 7 6 6 5 5 5 5 5 4 3 3 5 7 6 5 5 4 4 4 5 5 6 6 7 7 7 6 7 8 8 8 8 8 9 9 11 12 11 12 11 11 10 10 11 11
15 13 12 11 11 10 9 8 6 5 5 3 4 5 5 4 4 3 1 3 4 5 5 5 5 4 4 4 4 4 5 5 5 5 7 6 5 5 5 6 7 8 10 11 10 10 11 11 10 10 11 13 13 13
14 14 14 13 13 13 11 11 11 11 10 9 8 8 7 6 5 4 5 5 5 5 5 4 3 2 2 2 2 2 3 2 2 3 4 4 5 7 9 10 10 10 11 12 9 10 11 11 12 13 14 15 15 16
16 16 15 15 14 13 12 12 11 11 11 12 12 10 10 10 9 10 11 11 10 8 7 7 7 6 6 6 5 2 1 2 2 3 5 6 7 8 6 5 7 8 9 10 10 12 13 14 16 16 17 18 19 19
15 14 13 14 13 14 15 15 15 15 15 16 15 14 14 14 14 14 14 13 13 12 11 10 9 7 6 4 2 2 3 2 2 3 4 4 5 6 8 9 11 12 14 15 16 18 19 20 20 21 22 22 23 25
12 12 12 11 13 12 11 13 12 12 12 12 11 13 13 12 12 12 11 10 9 8 6 5 4 4 4 3 3 5 5 4 2 5 7 7 8 10 11 13 15 17 18 20 21 22 23 23 24 25 26 28 29 30
12 12 12 10 10 10 9 8 8 8 8 8 9 9 9 11 11 10 10 11 10 10 9 8 7 7 6 7 6 7 7 7 7 8 10 10 12 13 14 15 16 19 21 23 24 24 24 25 25 26 27 27 27 25
9 11 12 10 10 11 13 11 8 8 8 8 8 9 9 9 9 9 10 9 10 9 10 11 9 8 8 9 10 10 10 11 12 13 14 14 14 14 16 18 20 23 24 25 24 24 25 26 26 26 26 26 26 27
12 12 12 11 10 9 11 12 13 13 13 12 12 11 11 11 10 10 10 10 10 9 9 9 9 9 11 12 12 13 15 16 16 16 16 16 18 19 21 22 25 27 26 25 25 26 28 28 28 28 29 30 31 30
7 9 10 10 9 9 9 8 8 9 10 11 12 12 12 11 10 9 9 9 9 9 9 10 11 12 14 15 16 18 19 20 18 18 19 20 21 23 24 26 28 27 27 26 27 29 29 29 30 31 31 30 31 33
9 6 7 8 5 6 7 6 5 6 5 5 5 6 6 7 9 10 10 11 11 11 12 13 14 16 17 19 20 21 22 22 21 22 23 24 25 26 27 28 29 29 29 30 31 31 31 31 33 34 34 35 35 35
7 7 8 7 3 5 6 3 4 4 2 1 3 2 4 3 4 9 11 11 12 14 16 17 17 19 21 23 25 25 24 23 25 26 27 27 27 29 30 30 30 30 31 31 31 32 33 34 35 36 37 38 39 39
7 10 9 4 6 5 6 7 6 3 2 3 4 6 4 5 5 5 12 12 14 17 19 20 22 24 27 28 28 26 26 27 28 29 30 31 31 31 32 31 31 32 32 33 34 35 36 38 38 39 40 40 40 40
Wind_Direction
296 295 294 291 288 284 279 274 270 268 266 263 262 258 253 249 247 242 234 235 233 233 238 233 230 225 229 227 229 232 222 229 226 223 221 223 222 223 216 219 218 213 209 212 213 213 222 247 237 225 226 228 226 227
296 295 294 295 292 284 278 273 269 263 261 259 257 254 251 245 242 239 233 231 235 230 228 236 237 233 228 227 227 226 217 217 220 218 224 221 226 228 223 225 224 217 216 212 215 212 222 226 199 213 218 221 223 228
297 296 295 293 294 286 277 271 266 260 255 252 250 251 247 242 238 233 231 227 230 230 234 223 223 221 218 222 224 223 222 218 220 222 219 225 221 222 221 228 218 221 221 220 211 216 220 223 213 220 222 224 224 226
297 295 297 297 288 283 280 268 261 254 249 241 242 244 242 239 233 228 222 217 219 220 216 213 215 217 219 220 222 223 221 222 221 218 218 221 222 226 223 227 223 221 220 219 226 223 225 226 225 225 230 240 243 258
298 296 296 296 292 275 278 266 251 245 238 232 232 239 235 234 227 223 218 213 208 209 211 215 229 223 218 218 218 224 214 215 215 213 211 214 216 223 219 217 215 220 215 222 226 218 217 226 230 239 237 250 261 266
298 295 293 298 286 276 271 257 244 233 227 223 228 235 225 227 216 203 195 195 198 207 210 212 215 216 211 211 210 213 208 210 209 208 213 211 205 201 203 204 219 215 205 213 208 210 217 226 241 250 263 267 271 271
292 294 289 284 284 276 260 251 235 225 220 219 226 220 219 216 204 195 194 193 200 203 202 207 209 207 203 204 202 202 203 204 204 207 209 207 205 199 207 205 212 208 202 196 202 220 227 243 254 262 269 268 265 278
292 285 278 272 274 270 251 237 224 215 213 214 213 207 214 207 201 194 195 199 196 192 192 190 194 194 189 191 190 192 192 196 199 198 202 202 206 203 207 209 192 194 193 207 219 229 236 249 264 270 271 277 277 282
294 283 265 258 266 248 228 213 204 198 197 193 189 193 182 173 174 180 182 183 185 190 192 189 185 185 179 190 185 184 183 185 189 187 192 191 202 205 198 198 200 214 217 227 241 252 262 266 272 276 280 283 282 284
289 274 243 233 211 185 180 174 173 174 171 170 164 163 165 165 165 168 170 174 181 186 188 187 188 187 182 183 179 174 178 175 172 179 173 170 172 179 187 196 208 222 236 249 259 270 274 275 278 282 284 284 284 284
242 192 165 150 154 156 151 146 149 151 151 155 157 158 156 156 151 158 164 167 173 182 185 184 185 182 180 174 178 172 171 180 177 184 180 189 193 202 207 214 229 242 250 258 262 269 276 280 283 284 285 285 286 286
181 173 160 150 148 147 147 143 142 141 139 145 149 147 145 145 147 151 160 163 169 176 178 177 179 177 178 171 171 173 169 168 174 187 192 196 203 212 222 234 246 253 262 267 272 278 282 286 288 288 287 288 287 286
112 116 126 134 131 132 139 140 141 128 131 129 136 140 139 146 136 149 151 154 161 166 172 175 171 173 176 168 170 169 173 182 180 178 182 190 202 216 235 245 256 262 269 274 280 283 285 287 290 292 293 294 291 290
111 103 105 112 122 129 134 139 139 134 120 129 135 130 139 140 142 146 141 140 143 151 152 160 175 177 177 169 171 174 183 175 179 182 189 198 216 236 247 258 267 276 281 284 286 287 287 288 292 296 298 299 296 296
97 99 100 103 112 123 129 135 135 135 128 123 131 133 134 135 138 141 145 138 135 138 150 154 155 161 172 175 176 173 177 173 182 186 193 208 229 243 259 268 281 287 289 292 293 295 293 296 298 297 300 303 301 300
92 94 94 104 112 119 123 121 122 119 131 123 118 129 134 131 127 131 126 123 136 138 143 149 152 156 166 173 174 180 178 178 184 194 208 225 244 252 257 271 285 291 294 297 302 300 298 297 298 300 308 310 313 307
90 95 101 105 113 116 114 111 110 114 115 118 117 114 128 147 142 140 135 139 134 139 146 152 150 161 163 168 172 180 178 186 198 214 230 240 242 251 266 279 293 303 302 299 298 303 305 305 306 305 309 311 311 310
92 97 100 106 107 109 108 109 110 111 109 111 119 121 122 141 123 130 140 139 155 157 153 157 160 151 152 157 170 180 188 197 211 235 241 243 250 260 270 283 299 302 305 304 297 295 304 308 309 312 318 313 313 314
96 97 95 92 93 103 112 109 111 108 110 104 109 118 124 141 127 130 137 146 150 161 159 159 154 162 169 165 173 196 214 222 236 245 241 248 260 276 287 293 298 303 301 305 310 299 301 303 301 294 300 307 309 307
91 92 87 80 86 99 107 107 104 104 110 115 98 96 122 141 145 136 135 137 154 162 162 163 165 171 179 201 217 228 232 237 239 248 244 255 267 285 285 286 291 299 297 295 302 301 306 316 311 301 297 299 302 297
80 83 84 81 90 95 101 94 88 91 95 97 90 97 116 122 123 119 128 141 151 165 169 169 176 199 211 229 239 241 236 241 240 240 245 255 276 294 289 281 288 298 298 297 295 296 305 310 304 304 303 307 308 300
68 67 69 71 80 80 86 79 83 79 91 102 94 93 104 107 108 109 129 156 170 176 185 200 215 226 239 247 247 243 249 233 232 248 231 243 272 287 295 296 299 302 306 308 298 297 303 307 306 307 307 307 305 302
63 64 67 68 72 73 75 70 77 76 82 82 87 94 93 95 90 78 103 114 138 153 155 160 176 174 179 188 175 170 148 173 219 222 240 262 271 288 295 299 300 303 308 314 300 301 306 305 303 305 305 306 305 305
65 66 66 64 69 72 69 71 74 76 79 81 83 80 82 85 81 88 96 101 104 105 104 112 118 109 106 109 129 107 327 326 287 280 279 272 282 299 307 323 317 320 320 317 314 309 308 306 306 304 304 305 305 305
67 59 62 62 71 73 70 72 77 81 86 89 88 84 87 87 87 87 87 92 91 94 94 91 93 92 90 78 57 12 339 307 273 323 329 298 299 298 307 307 308 311 312 309 307 304 302 301 301 301 301 301 301 300
58 60 67 73 70 78 73 77 80 83 86 87 90 88 88 83 80 82 85 83 83 79 85 87 73 57 40 39 28 10 357 357 334 322 325 319 310 304 302 305 305 305 308 306 304 303 301 300 300 300 299 299 298 297
52 55 56 61 66 68 64 69 78 77 89 89 91 90 84 80 79 77 77 70 69 71 74 74 73 74 58 32 26 12 3 349 335 321 316 314 315 311 308 306 307 306 308 309 307 305 303 303 303 303 303 303 303 302
47 49 55 67 70 65 60 67 77 86 83 84 87 76 76 87 80 76 78 65 57 59 64 70 70 50 26 10 2 355 346 338 331 324 318 314 313 314 314 312 311 312 311 309 307 306 306 306 305 305 305 303 302 302
46 48 55 52 53 65 63 67 69 72 79 83 89 87 87 86 81 74 63 63 56 52 44 32 18 9 359 353 349 343 338 332 328 325 322 315 312 311 313 313 313 313 312 310 308 308 308 307 305 305 304 301 301 300
33 41 47 48 55 55 55 73 77 75 80 82 81 81 78 75 68 58 48 38 33 30 23 12 2 356 351 347 341 337 334 331 327 321 317 315 312 311 312 313 313 312 311 309 308 308 307 306 305 303 303 302 301 300
30 36 37 33 43 57 54 51 57 64 89 89 79 73 82 64 52 42 31 25 22 13 2 356 351 348 344 341 337 333 330 329 327 324 320 316 315 314 313 313 312 311 309 308 308 308 307 307 307 306 304 302 302 301
34 41 34 46 45 18 17 38 18 36 68 12 350 333 329 336 3 2 2 359 357 355 352 348 344 341 339 336 334 331 328 326 325 323 321 318 316 316 315 314 313 312 311 311 311 310 309 309 308 308 306 304 303 303
19 21 353 1 9 6 12 19 9 346 311 341 339 331 302 291 308 340 355 355 351 346 344 342 339 336 334 333 332 330 328 326 325 324 321 320 317 316 315 315 314 314 313 313 312 311 310 310 309 308 307 306 305 304